sat.trackr.live / text

‹ back to catalog

STARLINK-32903

NORAD 63090 · 2025-037P

PAYLOAD ACTIVE UNKNOWN

§ Identity

Operator
Country
US
Launch date
2025-02-23
Launch site
AFWTR
Launch vehicle
Mass (kg)
RCS (m²)

Purposes: comms

External: N2YO · Heavens-Above · Gunter

§ Orbital elements

Epoch: 2026-09-20T08:04:07.916736Z

Period
94.14 min
Inclination
69.9997°
Eccentricity
0.0002827
Mean motion
15.29592442 rev/d
Perigee alt
475.1 km
Apogee alt
479.0 km
Semi-major
6,855.2 km
B*
3.8575e-4
RAAN
221.4752°
Arg perigee
261.4393°
Mean anomaly
98.6462°
Rev number
8,767

§ Raw data

STARLINK-329031 63090U 25037P   26263.33620274  .00010981  00000+0  38575-3 0  99902 63090  69.9997 221.4752 0002827 261.4393  98.6462 15.29592442 87675

JSON: /api/v1/satellites/63090 · /tle

For live sub-satellite position, see the globe view (requires WebGL).

§ Visibility from observer

Set your observer location to see the next 7 days of passes ≥ 10°. The values pass through the URL so the page stays shareable.

No JS? Fill the form by hand. The geolocation button needs JavaScript.